Погода в Шарковщине

Погода в Шарковщине : погода сейчас, прогноз погоды и архив. Всё, что Вы хотите узнать о погоде в Шарковщине!

Хотите узнать прогноз погоды в Шарковщине? Тогда Вам сюда: Погода в Шарковщине

Поиск расширенной информации на нашем сайте:

Другие новости

Новости СМИ2

Главная страница сайта

Новости сайта

03.07.2017

Напоминаем, что на нашем специализированном сайте Метеоцентр.Азия вы можете получить высокодетализированные автоматические прогнозы погоды по пунктам России, СНГ и мира в авиационном формате (включающие направление и скорость ветра, видимость, явления погоды, количество и форму облачности, нижнюю и верхнюю границу облачности).


Погода в Шарковщине - сегодня

Время (UTC), дата Ветер
(°,м/с) 
Видим.   Явления Облачность Т
(°С)
Тd
(°С)
f(%) Тe
(°С)
Pmin
(гПа)
dP
(гПа)
Po
(мм)
O2
(г/м3)
Тmin Tmax R s Состояние
почвы
06 24.05.18 040 (СВ) 17000 м    3/0 средняя 
[Ac trans]
+15.5 +12.2 81 +21  1024  0.6  756  286  +7.7         
09 24.05.18 050 (СВ) 20000 м    4/4 600 м 
[Cu med, cong]
+19.6 +11.9 61 +25  1023.9  0.2  756  282           
12 24.05.18 050 (СВ) 20000 м    8/6 600 м средняя 
[Cu med, cong|Ac trans]
+22.8 +11.9 50 +26  1022.6  -1.1  756  279           
21 24.05.18 тихо ()   2000 м  дымка  4/3 600 м средняя 
[Cu med, cong|Ac lent]
+12.5 +12.1 97 +16  1023.5  0.7  756  289           
00 25.05.18 040 (СВ) 11000 м    ясно 
+13.9 +11.4 85 +17  1023.9  0.5  756  288           
09 25.05.18 080 (В) 20000 м    ясно 
+21.5 +13.7 61 +28  1025.7  0.5  758  280           
12 25.05.18 080 (В) 23000 м    10/3 600 м верхняя 
[Cu med, cong|Ci fib]
+23.8 +11.9 47 +27  1025.6  758  279           
15 25.05.18 080 (В) 23000 м    10/3 600 м верхняя 
[Cu med, cong|Ci fib]
+24.2 +11.4 45 +27  1025.2  -0.4  758  278           
18 25.05.18 060 (СВ) 21000 м    4/0 верхняя 
[Ci fib]
+21.5 +13.1 59 +27  1025.5  0.2  758  280    +24.9       
21 25.05.18 070 (В) 20000 м    3/0 верхняя 
[Ci fib]
+16.2 +11.2 72 +20  1027.3  1.5  759  287           
00 26.05.18 070 (В) 20000 м    ясно 
+13.1 +10.2 83 +15  1028.9  1.3  760  290           
09 26.05.18 100 (В) 22000 м    3/0 верхняя 
[Ci fib]
+20.6 +9.5 49 +21  1029.7  -0.1  761  283           
12 26.05.18 090 (В) 25000 м    3/0 верхняя 
[Ci fib]
+22.6 +9 42 +23  1028.9  -0.7  760  281           
15 26.05.18 070 (В) 20000 м    4/0 верхняя 
[Ci fib]
+23 +9.3 42 +23  1027.2  -1.6  759  280           
18 26.05.18 100 (В) 20000 м    3/0 верхняя 
[Ci fib]
+20.3 +10.4 53 +22  1027.3  759  283    +23.5       
21 26.05.18 100 (В) 20000 м    3/0 верхняя 
[Ci fib]
+14.9 +9.7 71 +17  1028.3  0.6  759  288           
00 27.05.18 тихо ()   15000 м    6/0 верхняя 
[Ci fib]
+11.3 +9.5 89 +12  1028.2  -0.3  759  292           
03 27.05.18 120 (ЮВ) 16000 м    10/0 верхняя 
[Ci fib]
+10.7 +8 83 +12  1027.9  -0.3  759  293           
06 27.05.18 170 (Ю) 21000 м    10/0 верхняя 
[Ci fib]
+16.7 +9 60 +18  1027.5  759  287  +10         
09 27.05.18 190 (Ю) 20000 м    6/0 верхняя 
[Ci fib]
+21.7 +8 41 +22  1027.1  -0.2  759  282           
12 27.05.18 230 (ЮЗ) 20000 м    3/0 верхняя 
[Ci fib]
+23.8 +9.5 40 +24  1025.7  -1.2  758  279           
15 27.05.18 250 (З) 19000 м    1/0 верхняя 
[Ci fib]
+24.8 +11.4 43 +28  1024.5  -1.2  757  278           
18 27.05.18 тихо ()   20000 м    3/0 верхняя 
[Ci fib]
+23.3 +13.7 55 +30  1024.1  -0.4  757  278    +25.1       
21 27.05.18 тихо ()   19000 м    ясно 
+15.4 +12.7 84 +20  1025.3  0.7  757  286           
00 28.05.18 тихо ()   11000 м    4/0 средняя, верхняя 
[Ac trans|Ci fib]
+13.5 +12 91 +17  1026.5  1.1  758  289           
Время (UTC), дата Ветер
(°,м/с) 
Видим.   Явления Облачность Т
(°С)
Тd
(°С)
f(%) Тe
(°С)
Pmin
(гПа)
dP
(гПа)
Po
(мм)
O2
(г/м3)
Тmin Tmax R s Состояние
почвы

Для получения пояснительной информации подведите курсор к названию столбца.

ПОГОДА в Шарковщине - архив

Всё, что Вы хотите узнать о погоде в Шарковщине - удобно и подробно!

Выберите нужную дату (начиная с 1 января 2015* года) и нажмите кнопку "Найти".
Будут отображены архивные сводки погоды по пункту Шарковщина, начиная с указанной даты.


Отображать данные в формате CSV (для использования в таблицах Excel)


Внимание! Наш архив погоды предназначен исключительно для личного некоммерческого использования в познавательных целях. Если Вам необходимы официальные справки о состоянии погоды (для производственных, юридических, коммерческих и т.п. целей), обращайтесь в органы Росгидромета.

*Примечание: данная дата относится к архиву по метеостанциям СССР (Россия, СНГ, Балтия).
Архив по метеостанциям Зарубежной Европы и Азии (кроме Китая) хранится 10 дней, по другим регионам земного шара (Китай, Африка, Америка, Австралия, Океания) - 1 день.

Шарковщина - район местоположения метеостанции


Название, широта, долгота, высота метеостанции:
Шарковщина 55.4°ш. 27.5°д. 131 м над ур. моря [Беларусь]

Дополнительная информация

В oтличие oт бoльшинства пoгoдных сайтoв мы публикуем пoдрoбную метеoинфoрмацию в детальнoм прoфессиoнальнoм фoрмате.

Характеристики температуры и влажнoсти вoздуха измеряются на высoте 2 м в тени вдали oт зданий и деревьев.
Скoрoсть ветра измеряется на высoте 10 м (на урoвне рoста челoвека скoрoсть ветра ниже в 1.5-2 раза). Если метеoстанция нахoдится в гoрoде или в лесу, тo скoрoсть ветра занижена на 2-4 м/с пo сравнению с oткрытым местoм. Скoрoсть ветра над акватoриями крупных рек и oзёр, а также на вершинах хoлмoв на 2-5 м/с выше, чем в oбычных услoвиях.
Атмoсфернoе давление в разных тoчках местнoсти мoжет значительнo oтличаться oт давления на метеoстанции, в зависимoсти oт услoвий рельефа (при пoдъёме на 10 м давление пoнижается примернo на 1 мм рт.ст.).